Weather observations for the past three days for
Ciudad Juarez International
Imperial (Metric)
Date Time (cdt) Wind (mph) Vis. (mi.) Weather Sky Cond. Temperature (ºF) Relative Humidity Wind Chill (°F) Heat Index (°F) Pressure Precipitation (in)
Air Dwpt 6 hour altimeter (in) sea level (mb) 1 hr 3 hr 6 hr
Max. Min.
12 21:45 NE 13 10.00 Clear SKC 89.6 37.4 16% 86 30.12 1007.1
12 20:41 NE 16 10.00 Clear SKC 91.4 37.4 15% 87 30.1 0.0
12 19:43 NE 15 10.00 Clear SKC 93.2 35.6 13% 89 30.09 0.0
12 18:40 NE 15 10.00 Clear SKC 95 37.4 13% 90 30.09 1006.1
12 17:42 NE 16 10.00 Clear SKC 95 35.6 12% 90 30.09 0.0
12 16:40 NE 17 10.00 A Few Clouds FEW050 93.2 39.2 15% 89 30.12 0.0
12 15:40 NE 12 10.00 A Few Clouds FEW050 93.2 42.8 17% 89 30.14 1007.2
12 14:44 E 13 10.00 A Few Clouds FEW050 93.2 46.4 20% 90 30.15 0.0
12 13:41 NE 8 10.00 A Few Clouds FEW050 89.6 48.2 24% 86 30.18 0.0
12 12:40 E 14 10.00 Clear SKC 87.8 48.2 25% 85 30.2 1009.0
12 11:40 E 10 10.00 Clear SKC 86 51.8 31% 84 30.2 0.0
12 10:42 NE 10 10.00 Clear SKC 82.4 51.8 35% 81 30.21 0.0
12 09:43 NE 8 10.00 Clear SKC 78.8 51.8 39% 79 30.21 1009.8
12 08:41 Calm 10.00 Clear SKC 75.2 50 41% 78 30.21 0.0
12 07:05 E 5 10.00 Clear SKC 73.4 48.2 41% 30.17 1008.8
11 21:40 NE 10 10.00 A Few Clouds FEW045 FEW200 91.4 44.6 20% 88 30.08 1005.2
11 20:40 N 9 10.00 Partly Cloudy FEW045 SCT200 91.4 41 17% 87 30.07 0.0
11 19:40 NE 12 10.00 A Few Clouds FEW045 FEW200 93.2 39.2 15% 89 30.06 0.0
11 18:40 NE 13 10.00 Partly Cloudy SCT045 93.2 39.2 15% 89 30.05 1005.4
11 17:40 SE 5 10.00 Partly Cloudy SCT045 93.2 48.2 21% 90 30.07 0.0
11 16:40 E 5 10.00 Partly Cloudy SCT045 91.4 50 24% 88 30.1 0.0
11 15:40 Calm 10.00 Partly Cloudy SCT045 95 51.8 23% 92 30.12 1007.3
11 14:40 E 6 10.00 Partly Cloudy SCT045 91.4 50 24% 88 30.15 0.0
11 13:40 E 6 10.00 A Few Clouds FEW045 89.6 51.8 27% 87 30.18 0.0
11 12:40 E 6 10.00 A Few Clouds FEW040 87.8 51.8 29% 85 30.19 1009.5
11 11:45 NE 6 10.00 A Few Clouds FEW040 86 51.8 31% 84 30.2 0.0
11 10:40 NE 6 10.00 Clear SKC 80.6 51.8 37% 80 30.2 0.0
11 09:40 N 6 10.00 Clear SKC 78.8 51.8 39% 79 30.2 1010.3
11 08:42 NW 5 10.00 Clear SKC 75.2 53.6 47% 78 30.2 0.0
11 07:02 NW 7 10.00 Clear SKC 73.4 51.8 47% 30.18 1009.5
10 21:40 E 10 10.00 Partly Cloudy FEW045 SCT100 SCT200 82.4 50 32% 81 30.15 1008.5
10 20:40 NE 18 10.00 Mostly Cloudy FEW045CB SCT100 BKN200 84.2 46.4 27% 82 30.12 0.0
10 19:40 NE 22 10.00 Mostly Cloudy and Breezy FEW045CB SCT100 BKN200 86 46.4 25% 83 30.09 0.0
10 18:40 NE 15 G 31 10.00 Mostly Cloudy FEW045CB SCT100 BKN200 89.6 50 26% 87 30.05 1005.2
10 17:40 S 9 10.00 Partly Cloudy SCT045CB SCT100 SCT200 91.4 51.8 26% 89 30.05 0.0
10 16:40 NE 5 10.00 A Few Clouds FEW045CB 95 50 22% 92 30.06 0.0
10 15:40 N 7 10.00 A Few Clouds FEW045 96.8 51.8 22% 94 30.09 1005.7
10 14:46 Vrbl 3 10.00 A Few Clouds FEW045 93.2 51.8 24% 90 30.12 0.0
10 13:40 NE 6 10.00 A Few Clouds FEW045 89.6 53.6 29% 87 30.14 0.0
10 12:40 E 9 10.00 Clear SKC 87.8 55.4 33% 86 30.17 1008.3
10 11:44 NE 8 10.00 Clear SKC 84.2 55.4 37% 83 30.19 0.0
10 10:40 NE 9 10.00 Clear SKC 80.6 55.4 42% 81 30.2 0.0
10 09:40 NE 9 10.00 Clear SKC 78.8 55.4 45% 79 30.2 1009.9
10 08:49 NE 8 10.00 Clear SKC 77 53.6 44% 78 30.19 0.0
10 07:06 NW 6 10.00 A Few Clouds FEW170 73.4 55.4 53% 30.17 1008.3
Date Time (cdt) Wind (mph) Vis. (mi.) Weather Sky Cond. Air Dwpt Max. Min. Relative Humidity Wind Chill (°F) Heat Index (°F) altimeter (in) sea level (mb) 1 hr 3 hr 6 hr
6 hour
Temperature (ºF) Pressure Precipitation (in)